Weather History for KSWO - June, 2013

Change the Weather History Date:

Monday, June 3, 2013

  Actual Average Record
Temperature  
Mean Temperature 68 °F -  
Max Temperature 81 °F 81 °F 95 °F (1998)
Min Temperature 55 °F 59 °F 55 °F (1997)
Cooling Degree Days 3    
Growing Degree Days 18 (Base 50)    
Moisture  
Dew Point 58 °F    
Average Humidity 71    
Maximum Humidity 93    
Minimum Humidity 48    
Precipitation  
Precipitation 0.00 in - - ()
Sea Level Pressure  
Sea Level Pressure 29.91 in    
Wind  
Wind Speed 9 mph (SE)    
Max Wind Speed 20 mph    
Max Gust Speed 28 mph    
Visibility 10 miles    
Events      
Averages and records for this station are not official NWS values.
T = Trace of Precipitation, MM = Missing Value Source: NWS Daily Summary

Daily Weather History Graph

Daily Weather History Graph

Search for Another Location

Airport or City:

Trip Planner

Search our weather history database for the weather conditions in past years. The results will help you decide how hot, cold, wet, or windy it might be!

Date:

Astronomy

Jun. 03, 2013 Rise Set
Actual Time 6:11 AM CDT 8:41 PM CDT
Civil Twilight 5:41 AM CDT 9:11 PM CDT
Nautical Twilight 5:05 AM CDT 9:48 PM CDT
Astronomical Twilight 4:24 AM CDT 10:29 PM CDT
Moon 3:02 AM CDT (6/3) 4:19 PM CDT (6/3)
Length of Visible Light 15h 29m
Length of Day
14h 29m
Waning Crescent, 22% of the Moon is Illuminated
Jun 3
Waning Crescent
Jun 8
New
Jun 16
First Quarter
Jun 23
Full
Jun 29
Last Quarter

Hourly Weather History & Observations

Time (CDT) Temp. Heat Index Dew Point Humidity Pressure Visibility Wind Dir Wind Speed Gust Speed Precip Events Conditions
12:53 AM 57.9 °F - 55.0 °F 90% 30.00 in 10.0 mi East 6.9 mph - N/A   Clear
1:53 AM 57.9 °F - 54.0 °F 87% 30.00 in 10.0 mi ESE 6.9 mph - N/A   Clear
2:53 AM 55.9 °F - 54.0 °F 93% 30.01 in 10.0 mi SE 5.8 mph - N/A   Clear
3:53 AM 55.9 °F - 54.0 °F 93% 30.00 in 10.0 mi SE 5.8 mph - N/A   Clear
4:53 AM 55.9 °F - 54.0 °F 93% 29.99 in 10.0 mi East 8.1 mph - N/A   Clear
5:53 AM 55.9 °F - 54.0 °F 93% 29.97 in 10.0 mi ESE 8.1 mph - N/A   Clear
6:53 AM 57.0 °F - 54.0 °F 89% 29.99 in 10.0 mi SE 8.1 mph - N/A   Clear
7:53 AM 59.0 °F - 55.9 °F 90% 29.99 in 10.0 mi ESE 6.9 mph - N/A   Clear
9:53 AM 66.0 °F - 57.9 °F 75% 29.98 in 10.0 mi South 8.1 mph - N/A   Clear
10:53 AM 70.0 °F - 59.0 °F 68% 29.97 in 10.0 mi SSE 10.4 mph - N/A   Clear
11:53 AM 72.0 °F - 59.0 °F 64% 29.96 in 10.0 mi South 10.4 mph - N/A   Mostly Cloudy
12:53 PM 73.9 °F - 61.0 °F 64% 29.94 in 10.0 mi South 10.4 mph - N/A   Clear
1:53 PM 77.0 °F - 60.1 °F 56% 29.91 in 10.0 mi South 8.1 mph 17.3 mph N/A   Clear
2:53 PM 80.1 °F 81.1 °F 61.0 °F 52% 29.88 in 10.0 mi SSE 13.8 mph 18.4 mph N/A   Clear
3:53 PM 81.0 °F 81.7 °F 61.0 °F 50% 29.85 in 10.0 mi SSE 15.0 mph - N/A   Clear
4:53 PM 81.0 °F 81.6 °F 60.1 °F 49% 29.82 in 10.0 mi SSE 18.4 mph 27.6 mph N/A   Clear
5:53 PM 81.0 °F 81.6 °F 60.1 °F 49% 29.81 in 10.0 mi SSE 16.1 mph - N/A   Clear
6:53 PM 80.1 °F 80.7 °F 59.0 °F 48% 29.78 in 10.0 mi SSE 19.6 mph - N/A   Clear
7:53 PM 78.1 °F - 60.1 °F 54% 29.78 in 10.0 mi SSE 15.0 mph - N/A   Clear
8:53 PM 75.0 °F - 61.0 °F 62% 29.80 in 10.0 mi SE 11.5 mph - N/A   Clear
9:53 PM 73.9 °F - 62.1 °F 66% 29.83 in 10.0 mi SE 9.2 mph - N/A   Clear
10:53 PM 73.0 °F - 62.1 °F 68% 29.82 in 10.0 mi SE 15.0 mph 21.9 mph N/A   Clear
11:53 PM 72.0 °F - 63.0 °F 73% 29.83 in 10.0 mi SE 12.7 mph - N/A   Clear